Regional Weather Roundup
Issued by NWS

Home | Current Version | Previous Version | Graphics & Text | Print | Product List | Glossary On
Versions: 1 2 3 4 5 6 7 8 9 10 11 12 13 14 15 16 17 18 19 20 21 22 23 24 25 26 27 28 29 30 31 32 33 34 35 36 37 38 39 40 41 42 43 44 45 46 47 48 49 50
000
ASUS45 KABQ 220801
RWRNM
WEATHER ROUNDUP FOR NEW MEXICO
NATIONAL WEATHER SERVICE ALBUQUERQUE NM
200 AM MDT MON SEP 22 2014

NOTE: "FAIR" MEANS FEW OR NO CLOUDS BELOW 12,000 FEET AGL WITH NO
       SIGNIFICANT WEATHER OR OBSTRUCTIONS TO VISION.

      THIS PRODUCT IS RELEASED AS TWO VERSIONS.  ONE VERSION NEAR
      THE TOP OF THE HOUR CONTAINING PRELIMINARY DATA FROM ALBUQUERQUE
      AND OTHER STATIONS.  A FINAL VERSION WITH ADDITIONAL DATA IS
      ISSUED ABOUT 10 MINUTES AFTER THE HOUR.

NMZ501-503-504-510>518-220900-
NORTHWEST PLATEAU/NORTHCENTRAL MOUNTAINS

CITY           SKY/WX    TMP DP  RH WIND       PRES   REMARKS
FARMINGTON     LGT RAIN  63  58  83 W5        30.28R
LOS ALAMOS     CLOUDY    59  53  79 S10       30.43F
SANTA FE       MOCLDY    61  54  77 S12       30.38F
TAOS           MOCLDY    61  46  59 S5        30.42S
ANGEL FIRE     CLOUDY    53  48  81 S7        30.51F

$$
NMZ402-403-502-505>509-220900-
WESTCENTRAL MOUNTAINS/SOUTHWEST MOUNTAINS

CITY           SKY/WX    TMP DP  RH WIND       PRES   REMARKS
GALLUP         LGT RAIN  62  56  80 SE5       30.32F
SILVER CITY    CLOUDY    64  63  94 SE10      30.29R

$$
NMZ407-409-411-412-220900-
SOUTHERN DESERTS

CITY           SKY/WX    TMP DP  RH WIND       PRES   REMARKS
LORDSBURG      DRIZZLE   68  64  88 MISG      30.19S
DEMING         CLOUDY    67  65  93 E5        30.21R
LAS CRUCES     CLOUDY    69  62  76 SE7       30.21S
HOLLOMAN AFB   CLOUDY    67  63  86 N6        30.19R
ALAMOGORDO     CLOUDY    72  61  68 N8        30.21R
T OR C         CLOUDY    68  60  75 SW6       30.25R

$$
NMZ519>523-220900-
CENTRAL VALLEYS/CENTRAL HIGHLANDS

CITY           SKY/WX    TMP DP  RH WIND       PRES   REMARKS
ALBUQUERQUE    PTCLDY    67  54  63 E16       30.30S
DOUBLE EAGLE   PTCLDY    62  54  73 E7        30.33F
CLINES CORNERS CLOUDY    57  55  93 SE12      30.41S
BELEN          FAIR      64  55  72 NW3       30.29S
SOCORRO        MOCLDY    65  60  82 CALM      30.27S

$$
NMZ524>526-539-540-220900-
SOUTHCENTRAL MOUNTAINS

CITY           SKY/WX    TMP DP  RH WIND       PRES   REMARKS
RUIDOSO        NOT AVBL

$$
NMZ527>531-220900-
NORTHEAST HIGHLANDS/NORTHEAST PLAINS

CITY           SKY/WX    TMP DP  RH WIND       PRES   REMARKS
LAS VEGAS      HVY RAIN  55  55 100 CALM      30.44S FOG
RATON          HVY RAIN  58  57  97 SW12G18   30.41S FOG
CLAYTON        CLOUDY    62  56  80 S8        30.37S

$$
NMZ532>537-220900-
EASTCENTRAL PLAINS

CITY           SKY/WX    TMP DP  RH WIND       PRES   REMARKS
TUCUMCARI      CLOUDY    65  62  90 E6        30.31R
CANNON AFB     NOT AVBL
CLOVIS AIRPORT   N/A     63  61  94 SE9       30.35S

$$
NMZ028-029-538-220900-
SOUTHEAST PLAINS

CITY           SKY/WX    TMP DP  RH WIND       PRES   REMARKS
ROSWELL        MOCLDY    68  65  90 E3        30.25F
CARLSBAD       LGT RAIN  69  32  25 CALM      30.22S
HOBBS          CLOUDY    66  66 100 NE8       30.26S


$$



USA.gov is the U.S. government's official web portal to all federal, state and local government web resources and services.